Location: Cold Norton
(51.6667°N, 0.6667°E)
Time: 07:47:01
(UTC+00:00)

Cosmos 1346 Rocket - Pass Details

Date: 18 November 2025
Orbit: 479 x 490 km, 81.2° (Epoch: 12 December)

Event Time Altitude Azimuth Distance (km) Brightness Sun altitude
Rises 17:33:50 0° 356° (N) 2,591 6.2 -13.8°
Reaches altitude 10° 17:36:16 10° 11° (N) 1,703 5.1 -14.1°
Enters shadow 17:38:23 22° 42° (NE) 1,145 4.0 -14.5°
